N4302L KLVK-KO69

Flight info

Callsign N4302L
Flight time N/A
Altitude 6000
Route LVK3 ALTAM PITTS V108 SGD
Aircraft M20P/L-SDGY/S

Departure

Time 2026-05-09 04:41
Airport Livermore Municipal Airport (KLVK)

Arrival

Time N/A
Airport KO69
Time Latitude Longitude Altitude Speed Heading
2026-05-09 04:26 37.69617 -121.81518 404 ft 0 kts 269°
2026-05-09 04:26 37.69617 -121.81519 404 ft 1 kts 269°
2026-05-09 04:27 37.69617 -121.81524 404 ft 0 kts 269°
2026-05-09 04:31 37.69615 -121.81535 404 ft 1 kts 224°
2026-05-09 04:31 37.69605 -121.81537 404 ft 3 kts 179°
2026-05-09 04:32 37.69577 -121.81561 404 ft 6 kts 270°
2026-05-09 04:32 37.69556 -121.81586 404 ft 5 kts 180°
2026-05-09 04:32 37.69532 -121.81586 404 ft 0 kts 178°
2026-05-09 04:36 37.69527 -121.81586 404 ft 2 kts 178°
2026-05-09 04:36 37.69494 -121.81586 404 ft 7 kts 180°
2026-05-09 04:36 37.69448 -121.81566 404 ft 6 kts 90°
2026-05-09 04:36 37.69447 -121.81531 404 ft 5 kts 90°
2026-05-09 04:37 37.69447 -121.81466 404 ft 11 kts 91°
2026-05-09 04:37 37.69446 -121.81375 404 ft 11 kts 90°
2026-05-09 04:37 37.69445 -121.81294 404 ft 5 kts 90°
2026-05-09 04:37 37.69445 -121.81233 404 ft 8 kts 90°
2026-05-09 04:38 37.69445 -121.81186 404 ft 4 kts 89°
2026-05-09 04:38 37.69445 -121.81153 404 ft 3 kts 91°
2026-05-09 04:38 37.69427 -121.81137 404 ft 3 kts 179°
2026-05-09 04:38 37.69417 -121.81138 404 ft 0 kts 181°
2026-05-09 04:40 37.69390 -121.81138 404 ft 7 kts 185°
2026-05-09 04:40 37.69379 -121.81160 404 ft 0 kts 270°
2026-05-09 04:40 37.69380 -121.81302 404 ft 43 kts 270°
2026-05-09 04:41 37.69385 -121.81896 425 ft 88 kts 270°
2026-05-09 04:41 37.69391 -121.82712 688 ft 96 kts 270°
2026-05-09 04:41 37.69385 -121.83593 959 ft 104 kts 269°
2026-05-09 04:41 37.69375 -121.84518 1230 ft 109 kts 269°
2026-05-09 04:42 37.69361 -121.85511 1485 ft 117 kts 269°
2026-05-09 04:42 37.69504 -121.86532 1728 ft 124 kts 301°
2026-05-09 04:42 37.70239 -121.87048 1995 ft 131 kts 353°
2026-05-09 04:42 37.71108 -121.86642 2292 ft 137 kts 30°
2026-05-09 04:43 37.71888 -121.85913 2556 ft 141 kts 34°
2026-05-09 04:43 37.72671 -121.85142 2845 ft 141 kts 34°
2026-05-09 04:43 37.73428 -121.84382 3200 ft 137 kts 34°
2026-05-09 04:43 37.74160 -121.83640 3541 ft 134 kts 34°
2026-05-09 04:44 37.74885 -121.82909 3833 ft 135 kts 34°
2026-05-09 04:44 37.75631 -121.82161 4131 ft 136 kts 34°
2026-05-09 04:44 37.76374 -121.81419 4427 ft 136 kts 34°
2026-05-09 04:44 37.77122 -121.80673 4721 ft 136 kts 34°
2026-05-09 04:45 37.77863 -121.79938 5011 ft 137 kts 34°
2026-05-09 04:45 37.78624 -121.79186 5275 ft 139 kts 34°
2026-05-09 04:45 37.79311 -121.78332 5517 ft 144 kts 57°
2026-05-09 04:45 37.79669 -121.77134 5778 ft 147 kts 71°
2026-05-09 04:46 37.79958 -121.75873 5934 ft 155 kts 72°
2026-05-09 04:46 37.80353 -121.74554 5979 ft 165 kts 53°
2026-05-09 04:46 37.81286 -121.73777 5989 ft 163 kts
2026-05-09 04:46 37.82400 -121.73947 5999 ft 163 kts 339°
2026-05-09 04:47 37.83487 -121.74348 6000 ft 166 kts 341°
2026-05-09 04:47 37.84444 -121.75134 6009 ft 165 kts 315°
2026-05-09 04:47 37.85270 -121.76163 6004 ft 167 kts 315°
2026-05-09 04:47 37.86149 -121.77103 6003 ft 168 kts 321°
2026-05-09 04:48 37.87118 -121.77952 6001 ft 169 kts 326°
2026-05-09 04:48 37.88134 -121.78718 6002 ft 170 kts 329°
2026-05-09 04:48 37.89162 -121.79423 6001 ft 170 kts 330°
2026-05-09 04:48 37.90223 -121.80112 6000 ft 170 kts 332°
2026-05-09 04:49 37.91275 -121.80773 6001 ft 170 kts 332°
2026-05-09 04:49 37.92348 -121.81437 6001 ft 170 kts 332°
2026-05-09 04:49 37.93418 -121.82093 6005 ft 170 kts 333°
2026-05-09 04:49 37.94475 -121.82738 6015 ft 170 kts 333°
2026-05-09 04:50 37.95550 -121.83393 6017 ft 171 kts 333°
2026-05-09 04:50 37.96628 -121.84048 6010 ft 171 kts 333°
2026-05-09 04:50 37.97691 -121.84695 6008 ft 171 kts 333°
2026-05-09 04:50 37.98766 -121.85349 6001 ft 171 kts 333°
2026-05-09 04:51 37.99829 -121.85995 5998 ft 171 kts 333°
2026-05-09 04:51 38.00908 -121.86651 5991 ft 171 kts 333°
2026-05-09 04:51 38.01989 -121.87308 5980 ft 172 kts 333°
2026-05-09 04:51 38.03051 -121.87955 5981 ft 171 kts 333°
2026-05-09 04:52 38.04113 -121.88630 5993 ft 170 kts 327°
2026-05-09 04:52 38.04808 -121.89792 5998 ft 168 kts 288°
2026-05-09 04:52 38.04952 -121.91260 6007 ft 168 kts 272°
2026-05-09 04:52 38.04922 -121.92738 6003 ft 169 kts 268°
2026-05-09 04:53 38.04858 -121.94237 6002 ft 170 kts 268°
2026-05-09 04:53 38.04795 -121.95717 6003 ft 170 kts 268°
2026-05-09 04:53 38.04737 -121.97212 6008 ft 169 kts 268°
2026-05-09 04:53 38.04684 -121.98711 6009 ft 169 kts 269°
2026-05-09 04:54 38.04634 -122.00191 6012 ft 169 kts 269°
2026-05-09 04:54 38.04585 -122.01685 6013 ft 170 kts 269°
2026-05-09 04:54 38.04540 -122.03192 6003 ft 170 kts 270°
2026-05-09 04:54 38.04567 -122.04681 6006 ft 170 kts 274°
2026-05-09 04:55 38.04645 -122.06185 6003 ft 170 kts 275°
2026-05-09 04:55 38.04742 -122.07667 6001 ft 170 kts 276°
2026-05-09 04:55 38.04849 -122.09164 6000 ft 170 kts 276°
2026-05-09 04:55 38.04960 -122.10661 6000 ft 170 kts 276°
2026-05-09 04:56 38.05073 -122.12155 5999 ft 170 kts 276°
2026-05-09 04:56 38.05185 -122.13648 5999 ft 170 kts 276°
2026-05-09 04:56 38.05297 -122.15124 6000 ft 170 kts 276°
2026-05-09 04:56 38.05409 -122.16616 6000 ft 170 kts 276°
2026-05-09 04:57 38.05529 -122.18109 5999 ft 169 kts 279°
2026-05-09 04:57 38.05951 -122.19485 6004 ft 169 kts 300°
2026-05-09 04:57 38.06609 -122.20702 6002 ft 169 kts 307°
2026-05-09 04:57 38.07347 -122.21869 6001 ft 169 kts 309°
2026-05-09 04:58 38.08109 -122.23011 6000 ft 169 kts 310°
2026-05-09 04:58 38.08880 -122.24146 5999 ft 169 kts 309°
2026-05-09 04:58 38.09658 -122.25279 5896 ft 171 kts 310°
2026-05-09 04:58 38.10413 -122.26375 5640 ft 161 kts 309°
2026-05-09 04:59 38.11137 -122.27424 5385 ft 154 kts 309°
2026-05-09 04:59 38.11836 -122.28426 5130 ft 149 kts 309°
2026-05-09 04:59 38.12511 -122.29385 4880 ft 145 kts 309°
2026-05-09 04:59 38.13186 -122.30330 4626 ft 142 kts 309°
2026-05-09 05:00 38.13852 -122.31255 4371 ft 140 kts 309°
2026-05-09 05:00 38.14505 -122.32149 4119 ft 139 kts 309°
2026-05-09 05:00 38.15155 -122.33031 3871 ft 134 kts 309°
2026-05-09 05:00 38.15793 -122.33884 3611 ft 131 kts 309°
2026-05-09 05:01 38.16415 -122.34706 3360 ft 129 kts 309°
2026-05-09 05:01 38.17038 -122.35518 3149 ft 126 kts 309°
2026-05-09 05:01 38.17646 -122.36310 3025 ft 122 kts 306°
2026-05-09 05:01 38.17984 -122.37214 2988 ft 109 kts 284°
2026-05-09 05:02 38.18190 -122.38103 2967 ft 101 kts 283°
2026-05-09 05:02 38.18334 -122.38651 2974 ft 96 kts 289°
2026-05-09 05:02 38.18666 -122.39645 2984 ft 88 kts 288°
2026-05-09 05:02 38.18812 -122.40125 2977 ft 87 kts 286°
2026-05-09 05:03 38.19065 -122.41075 2980 ft 83 kts 284°
2026-05-09 05:03 38.19188 -122.41547 2965 ft 84 kts 284°
2026-05-09 05:03 38.19382 -122.42283 2839 ft 94 kts 286°
2026-05-09 05:03 38.19610 -122.43095 2698 ft 101 kts 286°
2026-05-09 05:04 38.19840 -122.43980 2520 ft 109 kts 285°
2026-05-09 05:04 38.20078 -122.44918 2325 ft 116 kts 285°
2026-05-09 05:04 38.20331 -122.45927 2117 ft 121 kts 287°
2026-05-09 05:04 38.20600 -122.46927 1976 ft 120 kts 288°
2026-05-09 05:05 38.20871 -122.47921 1897 ft 116 kts 287°
2026-05-09 05:05 38.21142 -122.48849 1882 ft 109 kts 291°
2026-05-09 05:05 38.21390 -122.49729 1889 ft 102 kts 290°
2026-05-09 05:05 38.21631 -122.50568 1896 ft 101 kts 290°
2026-05-09 05:06 38.21859 -122.51350 1937 ft 92 kts 290°
2026-05-09 05:06 38.22097 -122.52116 1869 ft 95 kts 290°
2026-05-09 05:06 38.22349 -122.52919 1755 ft 99 kts 290°
2026-05-09 05:06 38.22606 -122.53738 1631 ft 101 kts 289°
2026-05-09 05:07 38.22885 -122.54555 1499 ft 99 kts 291°
2026-05-09 05:07 38.23182 -122.55328 1367 ft 97 kts 294°
2026-05-09 05:07 38.23476 -122.56095 1157 ft 96 kts 293°
2026-05-09 05:07 38.23778 -122.56798 1040 ft 86 kts 300°
2026-05-09 05:08 38.24108 -122.57425 851 ft 88 kts 300°
2026-05-09 05:08 38.24435 -122.58123 624 ft 93 kts 302°
2026-05-09 05:08 38.24802 -122.58794 412 ft 91 kts 305°
2026-05-09 05:08 38.25163 -122.59436 228 ft 85 kts 305°
2026-05-09 05:09 38.25503 -122.60042 102 ft 82 kts 305°
2026-05-09 05:09 38.25771 -122.60531 91 ft 46 kts 302°
2026-05-09 05:09 38.25891 -122.60735 91 ft 7 kts 308°
2026-05-09 05:09 38.25903 -122.60756 91 ft 2 kts 306°
2026-05-09 05:10 38.25907 -122.60786 91 ft 4 kts 229°
2026-05-09 05:10 38.25889 -122.60802 91 ft 2 kts 215°
2026-05-09 05:10 38.25886 -122.60805 91 ft 0 kts 215°
2026-05-09 05:11 38.25844 -122.60842 91 ft 10 kts 215°
2026-05-09 05:12 38.25839 -122.60884 91 ft 4 kts 304°
2026-05-09 05:12 38.25833 -122.60904 91 ft 3 kts 217°
2026-05-09 05:12 38.25817 -122.60911 91 ft 2 kts 136°
2026-05-09 05:12 38.25812 -122.60901 91 ft 0 kts 125°